Time,TemperatureF,DewpointF,PressureIn,WindDirection,WindDirectionDegrees,WindSpeedMPH,WindSpeedGustMPH,Humidity,HourlyPrecipIn,Conditions,Clouds,dailyrainin,SoftwareType,DateUTC
2013-11-22 00:00:00,82.5,76.4,29.97,ENE,73,8.0,13.0,82,0.00,RA,,0.00,WeatherDisplay:10.37,2013-11-22 06:00:00,
2013-11-22 00:15:00,82.6,77.3,29.97,East,86,6.0,12.0,84,0.00,CLR,,0.00,WeatherDisplay:10.37,2013-11-22 06:15:00,
2013-11-22 00:31:00,82.5,77.2,29.97,East,88,5.0,12.0,84,0.00,CLR,,0.00,WeatherDisplay:10.37,2013-11-22 06:31:00,
2013-11-22 00:45:00,82.6,76.9,29.96,ENE,78,9.0,13.0,83,0.00,CLR,,0.00,WeatherDisplay:10.37,2013-11-22 06:45:00,
2013-11-22 01:00:00,82.7,77.0,29.96,East,87,7.0,13.0,83,0.00,CLR,,0.00,WeatherDisplay:10.37,2013-11-22 07:00:00,
2013-11-22 01:15:00,82.6,77.3,29.95,East,88,6.0,12.0,84,0.00,CLR,,0.00,WeatherDisplay:10.37,2013-11-22 07:15:00,
2013-11-22 01:31:00,82.5,76.8,29.95,East,85,7.0,13.0,83,0.00,CLR,,0.00,WeatherDisplay:10.37,2013-11-22 07:31:00,
2013-11-22 01:45:00,82.5,77.2,29.95,East,91,6.0,12.0,84,0.00,CLR,,0.00,WeatherDisplay:10.37,2013-11-22 07:45:00,
2013-11-22 02:00:00,82.4,77.4,29.94,ENE,68,6.0,10.0,85,0.00,CLR,,0.00,WeatherDisplay:10.37,2013-11-22 08:00:00,
2013-11-22 02:16:00,82.6,77.3,29.94,East,90,5.0,13.0,84,0.00,CLR,,0.00,WeatherDisplay:10.37,2013-11-22 08:16:00,
2013-11-22 02:31:00,82.4,77.1,29.94,East,85,7.0,12.0,84,0.00,CLR,,0.00,WeatherDisplay:10.37,2013-11-22 08:31:00,
2013-11-22 02:45:00,82.4,77.5,29.94,East,95,7.0,10.0,85,0.00,CLR,,0.00,WeatherDisplay:10.37,2013-11-22 08:45:00,
2013-11-22 03:00:00,82.5,76.4,29.94,East,90,7.0,13.0,82,0.00,CLR,,0.00,WeatherDisplay:10.37,2013-11-22 09:00:00,
2013-11-22 03:15:00,82.6,76.9,29.94,East,91,5.0,12.0,83,0.00,CLR,,0.00,WeatherDisplay:10.37,2013-11-22 09:15:00,
2013-11-22 03:31:00,82.5,76.4,29.94,East,92,9.0,13.0,82,0.00,CLR,,0.00,WeatherDisplay:10.37,2013-11-22 09:31:00,
2013-11-22 03:45:00,82.4,76.8,29.94,East,86,6.0,10.0,83,0.00,CLR,,0.00,WeatherDisplay:10.37,2013-11-22 09:45:00,
2013-11-22 04:00:00,82.4,76.7,29.94,NE,34,5.0,9.0,83,0.00,CLR,,0.00,WeatherDisplay:10.37,2013-11-22 10:00:00,
2013-11-22 04:15:00,82.5,76.8,29.94,East,80,8.0,13.0,83,0.00,CLR,,0.00,WeatherDisplay:10.37,2013-11-22 10:15:00,
2013-11-22 04:31:00,82.4,76.7,29.94,East,92,8.0,10.0,83,0.00,CLR,,0.00,WeatherDisplay:10.37,2013-11-22 10:31:00,
2013-11-22 04:45:00,82.3,77.3,29.94,East,80,7.0,12.0,85,0.00,CLR,,0.00,WeatherDisplay:10.37,2013-11-22 10:45:00,
2013-11-22 05:00:00,82.1,77.1,29.94,ENE,72,7.0,13.0,85,0.00,CLR,,0.00,WeatherDisplay:10.37,2013-11-22 11:00:00,
2013-11-22 05:15:00,82.2,76.9,29.95,East,89,10.0,13.0,84,0.00,CLR,,0.00,WeatherDisplay:10.37,2013-11-22 11:15:00,
2013-11-22 05:31:00,82.2,77.6,29.95,ENE,66,5.0,12.0,86,0.00,CLR,,0.00,WeatherDisplay:10.37,2013-11-22 11:31:00,
2013-11-22 05:46:00,82.1,77.5,29.96,ENE,70,7.0,13.0,86,0.00,CLR,,0.00,WeatherDisplay:10.37,2013-11-22 11:46:00,
2013-11-22 06:00:00,82.2,77.6,29.96,East,83,7.0,12.0,86,0.00,CLR,,0.00,WeatherDisplay:10.37,2013-11-22 12:00:00,
2013-11-22 06:15:00,81.9,77.3,29.96,ENE,74,8.0,13.0,86,0.00,CLR,,0.00,WeatherDisplay:10.37,2013-11-22 12:15:00,
2013-11-22 06:31:00,82.1,77.1,29.97,ENE,77,6.0,13.0,85,0.00,CLR,,0.00,WeatherDisplay:10.37,2013-11-22 12:31:00,
2013-11-22 06:45:00,82.2,77.2,29.97,ENE,77,6.0,12.0,85,0.00,CLR,,0.00,WeatherDisplay:10.37,2013-11-22 12:45:00,
2013-11-22 07:00:00,82.5,77.2,29.98,ENE,75,7.0,14.0,84,0.00,CLR,,0.00,WeatherDisplay:10.37,2013-11-22 13:00:00,
2013-11-22 07:15:00,82.6,77.3,29.98,ENE,75,7.0,14.0,84,0.00,CLR,,0.00,WeatherDisplay:10.37,2013-11-22 13:15:00,
2013-11-22 07:31:00,82.7,77.3,29.98,ENE,61,5.0,12.0,84,0.00,CLR,,0.00,WeatherDisplay:10.37,2013-11-22 13:31:00,
2013-11-22 07:45:00,80.5,76.0,29.99,East,87,17.0,24.0,86,0.00,CLR,,0.00,WeatherDisplay:10.37,2013-11-22 13:45:00,
2013-11-22 08:00:00,80.3,75.8,30.00,East,83,12.0,18.0,86,0.00,CLR,,0.00,WeatherDisplay:10.37,2013-11-22 14:00:00,
2013-11-22 08:16:00,81.8,77.2,29.99,ENE,73,6.0,15.0,86,0.00,CLR,,0.00,WeatherDisplay:10.37,2013-11-22 14:16:00,
2013-11-22 08:31:00,84.0,77.5,30.00,ENE,72,3.0,10.0,81,0.00,CLR,,0.00,WeatherDisplay:10.37,2013-11-22 14:31:00,
2013-11-22 08:46:00,83.7,76.8,30.00,East,87,12.0,18.0,80,0.00,CLR,,0.00,WeatherDisplay:10.37,2013-11-22 14:46:00,
2013-11-22 09:01:00,82.6,77.3,30.01,ENE,77,6.0,15.0,84,0.00,CLR,,0.00,WeatherDisplay:10.37,2013-11-22 15:01:00,
2013-11-22 09:16:00,81.6,76.6,30.01,ENE,65,9.0,15.0,85,0.00,CLR,,0.00,WeatherDisplay:10.37,2013-11-22 15:16:00,
2013-11-22 09:31:00,82.1,77.1,30.02,ENE,70,7.0,15.0,85,0.00,CLR,,0.00,WeatherDisplay:10.37,2013-11-22 15:31:00,
2013-11-22 09:46:00,81.8,76.5,30.02,East,81,23.0,30.0,84,0.00,CLR,,0.00,WeatherDisplay:10.37,2013-11-22 15:46:00,
2013-11-22 10:00:00,78.0,75.5,30.02,ESE,113,16.0,29.0,92,0.02,RA,,0.02,WeatherDisplay:10.37,2013-11-22 16:00:00,
2013-11-22 10:15:00,78.5,76.0,30.03,ESE,108,10.0,19.0,92,0.00,CLR,,0.02,WeatherDisplay:10.37,2013-11-22 16:15:00,
2013-11-22 10:31:00,78.9,75.7,30.01,ENE,77,7.0,20.0,90,0.00,CLR,,0.02,WeatherDisplay:10.37,2013-11-22 16:31:00,
2013-11-22 10:45:00,78.9,75.0,30.02,ENE,70,6.0,19.0,88,0.00,CLR,,0.02,WeatherDisplay:10.37,2013-11-22 16:45:00,
2013-11-22 11:00:00,78.8,74.9,30.01,ENE,78,12.0,15.0,88,0.00,CLR,,0.02,WeatherDisplay:10.37,2013-11-22 17:00:00,
2013-11-22 11:15:00,78.6,76.1,30.01,ENE,72,8.0,18.0,92,0.02,RA,,0.04,WeatherDisplay:10.37,2013-11-22 17:15:00,
2013-11-22 11:31:00,78.0,75.2,29.99,East,79,8.0,15.0,91,0.01,RA,,0.05,WeatherDisplay:10.37,2013-11-22 17:31:00,
2013-11-22 11:45:00,79.2,76.0,29.97,East,82,8.0,16.0,90,0.00,CLR,,0.05,WeatherDisplay:10.37,2013-11-22 17:45:00,
2013-11-22 12:00:00,78.8,75.6,29.96,NE,55,5.0,12.0,90,0.01,CLR,,0.06,WeatherDisplay:10.37,2013-11-22 18:00:00,
2013-11-22 12:16:00,78.5,75.3,29.95,NNE,18,3.0,10.0,90,0.01,RA,,0.07,WeatherDisplay:10.37,2013-11-22 18:16:00,
2013-11-22 12:31:00,78.4,75.9,29.94,NNE,17,1.0,8.0,92,0.00,CLR,,0.07,WeatherDisplay:10.37,2013-11-22 18:31:00,
2013-11-22 12:46:00,78.8,76.3,29.94,ENE,60,2.0,9.0,92,0.00,CLR,,0.07,WeatherDisplay:10.37,2013-11-22 18:46:00,
2013-11-22 13:01:00,80.0,77.1,29.93,NE,46,3.0,9.0,91,0.00,CLR,,0.07,WeatherDisplay:10.37,2013-11-22 19:01:00,
2013-11-22 13:16:00,80.1,76.9,29.93,NNW,344,5.0,8.0,90,0.00,CLR,,0.07,WeatherDisplay:10.37,2013-11-22 19:16:00,
2013-11-22 13:31:00,80.0,76.8,29.92,NNE,14,3.0,9.0,90,0.00,CLR,,0.07,WeatherDisplay:10.37,2013-11-22 19:31:00,
2013-11-22 13:46:00,81.0,77.4,29.92,East,79,9.0,13.0,89,0.00,CLR,,0.07,WeatherDisplay:10.37,2013-11-22 19:46:00,
2013-11-22 14:01:00,82.5,77.1,29.92,East,82,8.0,15.0,84,0.00,CLR,,0.07,WeatherDisplay:10.37,2013-11-22 20:01:00,
2013-11-22 14:16:00,83.0,77.7,29.92,ENE,61,7.0,15.0,84,0.00,CLR,,0.07,WeatherDisplay:10.37,2013-11-22 20:16:00,
2013-11-22 14:31:00,83.1,77.4,29.91,East,81,6.0,13.0,83,0.00,CLR,,0.07,WeatherDisplay:10.37,2013-11-22 20:31:00,
2013-11-22 14:46:00,83.2,77.5,29.91,East,88,7.0,12.0,83,0.00,CLR,,0.07,WeatherDisplay:10.37,2013-11-22 20:46:00,
2013-11-22 15:01:00,83.4,77.7,29.92,ENE,66,2.0,10.0,83,0.00,CLR,,0.07,WeatherDisplay:10.37,2013-11-22 21:01:00,
2013-11-22 15:16:00,83.4,77.3,29.92,NE,53,3.0,13.0,82,0.00,CLR,,0.07,WeatherDisplay:10.37,2013-11-22 21:16:00,
2013-11-22 15:31:00,83.4,77.7,29.92,NE,39,5.0,15.0,83,0.00,CLR,,0.07,WeatherDisplay:10.37,2013-11-22 21:31:00,
2013-11-22 15:46:00,83.3,77.2,29.92,NE,53,6.0,13.0,82,0.00,CLR,,0.07,WeatherDisplay:10.37,2013-11-22 21:46:00,
2013-11-22 16:01:00,83.2,76.7,29.91,NE,53,7.0,14.0,81,0.00,CLR,,0.07,WeatherDisplay:10.37,2013-11-22 22:01:00,
2013-11-22 16:16:00,83.2,77.1,29.91,NE,49,8.0,14.0,82,0.00,CLR,,0.07,WeatherDisplay:10.37,2013-11-22 22:16:00,
2013-11-22 16:27:00,83.2,77.1,29.92,ENE,58,6.0,14.0,82,0.00,CLR,,0.07,WeatherDisplay:10.37,2013-11-22 22:27:00,
2013-11-22 16:46:00,83.1,77.4,29.92,ENE,72,5.0,13.0,83,0.00,CLR,,0.07,WeatherDisplay:10.37,2013-11-22 22:46:00,
2013-11-22 17:01:00,83.0,77.3,29.92,NE,48,8.0,13.0,83,0.00,CLR,,0.07,WeatherDisplay:10.37,2013-11-22 23:01:00,
2013-11-22 17:16:00,82.9,77.6,29.93,ENE,74,8.0,15.0,84,0.00,CLR,,0.07,WeatherDisplay:10.37,2013-11-22 23:16:00,
2013-11-22 17:31:00,82.9,77.5,29.92,ENE,66,7.0,14.0,84,0.00,CLR,,0.07,WeatherDisplay:10.37,2013-11-22 23:31:00,
2013-11-22 17:46:00,80.8,76.5,29.93,ESE,106,15.0,28.0,87,0.00,CLR,,0.07,WeatherDisplay:10.37,2013-11-22 23:46:00,
2013-11-22 18:01:00,80.2,75.7,29.94,ESE,104,9.0,23.0,86,0.03,RA,,0.10,WeatherDisplay:10.37,2013-11-23 00:01:00,
2013-11-22 18:16:00,79.4,76.2,29.95,NE,56,7.0,13.0,90,0.02,CLR,,0.12,WeatherDisplay:10.37,2013-11-23 00:16:00,
2013-11-22 18:31:00,78.9,74.7,29.94,NNE,25,6.0,14.0,87,0.00,CLR,,0.12,WeatherDisplay:10.37,2013-11-23 00:31:00,
2013-11-22 18:45:00,79.5,76.3,29.95,ENE,59,8.0,15.0,90,0.08,RA,,0.20,WeatherDisplay:10.37,2013-11-23 00:45:00,
2013-11-22 19:00:00,77.9,75.7,29.97,East,100,8.0,26.0,93,0.29,RA,,0.49,WeatherDisplay:10.37,2013-11-23 01:00:00,
2013-11-22 19:15:00,77.6,75.4,29.96,ENE,78,8.0,20.0,93,0.02,,,0.51,WeatherDisplay:10.37,2013-11-23 01:15:00,
2013-11-22 19:30:00,77.8,75.6,29.96,East,91,9.0,13.0,93,0.01,CLR,,0.52,WeatherDisplay:10.37,2013-11-23 01:30:00,
2013-11-22 19:45:00,78.9,76.7,29.96,East,88,6.0,13.0,93,0.00,CLR,,0.52,WeatherDisplay:10.37,2013-11-23 01:45:00,
2013-11-22 20:00:00,79.4,76.9,29.97,East,92,1.0,10.0,92,0.00,CLR,,0.52,WeatherDisplay:10.37,2013-11-23 02:00:00,
2013-11-22 20:15:00,79.6,77.1,29.96,East,92,2.0,9.0,92,0.00,CLR,,0.52,WeatherDisplay:10.37,2013-11-23 02:15:00,
2013-11-22 20:30:00,80.0,77.5,29.97,ENE,60,3.0,9.0,92,0.00,CLR,,0.52,WeatherDisplay:10.37,2013-11-23 02:30:00,
2013-11-22 20:45:00,80.2,77.3,29.97,ESE,103,15.0,19.0,91,0.00,CLR,,0.52,WeatherDisplay:10.37,2013-11-23 02:45:00,
2013-11-22 21:00:00,79.4,76.6,29.97,East,95,10.0,16.0,91,0.02,,,0.54,WeatherDisplay:10.37,2013-11-23 03:00:00,
2013-11-22 21:15:00,79.6,76.7,29.96,East,100,6.0,13.0,91,0.00,CLR,,0.54,WeatherDisplay:10.37,2013-11-23 03:15:00,
2013-11-22 21:30:00,79.9,76.7,29.97,East,88,5.0,12.0,90,0.00,CLR,,0.54,WeatherDisplay:10.37,2013-11-23 03:30:00,
2013-11-22 21:45:00,81.0,77.4,29.97,NE,47,8.0,13.0,89,0.00,CLR,,0.54,WeatherDisplay:10.37,2013-11-23 03:45:00,
2013-11-22 22:00:00,81.0,76.8,29.97,East,87,9.0,14.0,87,0.00,CLR,,0.54,WeatherDisplay:10.37,2013-11-23 04:00:00,
2013-11-22 22:15:00,81.4,77.2,29.96,East,100,6.0,13.0,87,0.00,CLR,,0.54,WeatherDisplay:10.37,2013-11-23 04:15:00,
2013-11-22 22:30:00,76.5,73.7,29.97,ENE,59,5.0,29.0,91,0.12,RA,,0.66,WeatherDisplay:10.37,2013-11-23 04:30:00,
2013-11-22 22:45:00,77.5,75.3,29.96,ESE,102,3.0,10.0,93,0.01,,,0.67,WeatherDisplay:10.37,2013-11-23 04:45:00,
2013-11-22 23:00:00,77.8,75.3,29.96,East,81,3.0,12.0,92,0.00,CLR,,0.67,WeatherDisplay:10.37,2013-11-23 05:00:00,
2013-11-22 23:15:00,78.8,76.3,29.95,East,93,3.0,13.0,92,0.00,CLR,,0.67,WeatherDisplay:10.37,2013-11-23 05:15:00,
2013-11-22 23:30:00,79.2,76.6,29.95,East,96,8.0,10.0,92,0.00,CLR,,0.67,WeatherDisplay:10.37,2013-11-23 05:30:00,
2013-11-22 23:45:00,79.6,75.7,29.94,East,84,7.0,12.0,88,0.00,CLR,,0.67,WeatherDisplay:10.37,2013-11-23 05:45:00,